CW9688 Weather Reports


time (UTC)temp
F
wind
direction
speed
knots
gust
knots
rain 1hr
in
rain 24hr
in
rain mn
in
humidity
%
barometer
mb
20260510015306 54 337 11.3 20.0 0.00 0.00 0.00 67 1008.2
20260510012805 55 4 8.7 24.3 0.00 0.00 0.00 61 1008.2
20260510012307 56 7 16.5 31.3 0.00 0.00 0.00 60 1008.2
20260510011305 57 358 13.0 24.3 0.00 0.00 0.00 57 1008.2
20260510005804 58 351 18.2 28.7 0.00 0.00 0.00 55 1008.2
20260510001805 72 46 4.3 8.7 0.00 0.00 0.00 24 1008.2
20260510000805 72 38 3.5 7.0 0.00 0.00 0.00 26 1008.2
20260509235805 73 64 6.1 10.4 0.00 0.00 0.00 26 1008.2
20260509235307 73 37 5.2 10.4 0.00 0.00 0.00 23 1008.2
20260509234805 73 56 5.2 10.4 0.00 0.00 0.00 24 1008.2
20260509233805 73 46 4.3 7.0 0.00 0.00 0.00 23 1008.2
20260509231804 73 39 3.5 10.4 0.00 0.00 0.00 20 1008.2
20260509231304 74 55 5.2 10.4 0.00 0.00 0.00 21 1008.2
20260509225805 74 80 5.2 10.4 0.00 0.00 0.00 22 1008.2
20260509225306 74 77 5.2 7.0 0.00 0.00 0.00 20 1008.2
20260509224305 73 354 4.3 8.7 0.00 0.00 0.00 20 1008.2
20260509223805 74 12 6.1 10.4 0.00 0.00 0.00 21 1008.2
20260509223304 74 29 5.2 8.7 0.00 0.00 0.00 20 1008.2
20260509221804 76 36 7.8 13.0 0.00 0.00 0.00 21 1008.2
20260509220805 75 66 7.8 17.4 0.00 0.00 0.00 21 1008.2
20260509220305 76 47 7.8 17.4 0.00 0.00 0.00 22 1008.2
20260509213804 75 29 6.1 11.3 0.00 0.00 0.00 21 1008.2
20260509213305 76 22 7.0 13.0 0.00 0.00 0.00 21 1008.2
20260509212805 76 54 8.7 14.8 0.00 0.00 0.00 21 1008.2
20260509204805 75 18 7.8 11.3 0.00 0.00 0.00 20 1008.2
20260509203805 75 76 4.3 12.2 0.00 0.00 0.00 23 1008.2
20260509203305 75 56 6.1 11.3 0.00 0.00 0.00 21 1008.2
20260509202805 75 61 7.8 14.8 0.00 0.00 0.00 21 1008.2
20260509202307 75 62 4.3 6.1 0.00 0.00 0.00 22 1008.2
20260509201805 74 77 1.7 7.8 0.00 0.00 0.00 21 1008.2
20260509201305 75 46 10.4 14.8 0.00 0.00 0.00 21 1008.2
20260509200805 74 58 6.1 13.0 0.00 0.00 0.00 22 1008.2
20260509195306 75 308 5.2 10.4 0.00 0.00 0.00 22 1008.2
20260509193805 75 58 5.2 10.4 0.00 0.00 0.00 22 1008.2
20260509192805 74 56 4.3 11.3 0.00 0.00 0.00 22 1008.2
20260509191804 74 22 6.1 11.3 0.00 0.00 0.00 22 1008.2
20260509185306 74 106 7.8 10.4 0.00 0.00 0.00 23 1008.2
20260509184805 74 111 5.2 10.4 0.00 0.00 0.00 25 1008.2
20260509183304 73 57 6.1 11.3 0.00 0.00 0.00 25 1008.2
20260509182805 72 87 7.8 13.0 0.00 0.00 0.00 24 1008.2
20260509175804 73 7 6.1 12.2 0.00 0.00 0.00 26 1008.3
20260509174805 71 43 7.0 12.2 0.00 0.00 0.00 26 1008.3
20260509173304 71 39 11.3 17.4 0.00 0.00 0.00 27 1007.5
20260509172805 71 33 8.7 13.0 0.00 0.00 0.00 28 1007.5
20260509172306 72 67 7.0 14.8 0.00 0.00 0.00 27 1007.5
20260509171305 72 40 7.0 15.6 0.00 0.00 0.00 26 1007.5
20260509170805 72 10 7.8 13.0 0.00 0.00 0.00 27 1007.5
20260509170304 73 46 5.2 13.0 0.00 0.00 0.00 22 1007.5
20260509165804 73 69 2.6 10.4 0.00 0.00 0.00 21 1007.5
20260509165306 72 7 6.1 10.4 0.00 0.00 0.00 21 1007.5
20260509164804 72 28 3.5 7.0 0.00 0.00 0.00 21 1007.5
20260509164305 73 65 4.3 6.1 0.00 0.00 0.00 21 1007.5
20260509163805 72 98 1.7 5.2 0.00 0.00 0.00 23 1007.5
20260509163305 72 27 1.7 5.2 0.00 0.00 0.00 21 1007.5
20260509162307 71 355 2.6 5.2 0.00 0.00 0.00 24 1007.5
20260509160805 71 120 1.7 4.3 0.00 0.00 0.00 25 1007.5
20260509160304 71 359 2.6 4.3 0.00 0.00 0.00 25 1007.5
20260509155805 70 88 3.5 4.3 0.00 0.00 0.00 24 1007.5
20260509154804 70 71 3.5 5.2 0.00 0.00 0.00 25 1007.5
20260509154304 69 351 2.6 5.2 0.00 0.00 0.00 25 1007.5
20260509152805 69 290 3.5 5.2 0.00 0.00 0.00 25 1007.5
20260509150805 67 295 1.7 4.3 0.00 0.00 0.00 29 1007.5
20260509150304 66 306 1.7 5.2 0.00 0.00 0.00 32 1007.5
20260509145805 65 5 1.7 5.2 0.00 0.00 0.00 35 1007.5
20260509145306 64 262 0.9 5.2 0.00 0.00 0.00 37 1007.5
20260509141304 59 156 2.6 4.3 0.00 0.00 0.00 50 1007.5
20260509140804 58 96 0.9 4.3 0.00 0.00 0.00 54 1007.5
20260509140304 57 77 1.7 4.3 0.00 0.00 0.00 54 1007.5
20260509135306 55 63 0.9 1.7 0.00 0.00 0.00 60 1007.5
20260509134805 54 63 0.9 1.7 0.00 0.00 0.00 58 1007.5
20260509134305 54 63 0.0 0.9 0.00 0.00 0.00 61 1007.5
20260509133305 54 63 0.9 2.6 0.00 0.00 0.00 59 1007.5
20260509131305 53 229 1.7 2.6 0.00 0.00 0.00 57 1007.5
20260509125804 51 170 2.6 4.3 0.00 0.00 0.00 65 1007.5
20260509123805 50 227 0.9 1.7 0.00 0.00 0.00 64 1007.5
20260509123304 49 227 1.7 2.6 0.00 0.00 0.00 65 1007.5
20260509122804 48 227 1.7 2.6 0.00 0.00 0.00 67 1007.5
20260509122306 48 274 1.7 2.6 0.00 0.00 0.00 68 1007.5
20260509121304 48 5 0.9 2.6 0.00 0.00 0.00 69 1007.5
20260509120805 47 5 0.0 1.7 0.00 0.00 0.00 72 1007.5
20260509115805 47 44 1.7 4.3 0.00 0.00 0.00 73 1007.5
20260509114304 47 197 0.9 1.7 0.00 0.00 0.00 71 1007.5
20260509113805 47 197 0.0 0.9 0.00 0.00 0.00 70 1007.5
20260509113305 47 197 1.7 2.6 0.00 0.00 0.00 71 1007.5
20260509112805 47 197 1.7 2.6 0.00 0.00 0.00 73 1007.5
20260509111805 47 197 1.7 2.6 0.00 0.00 0.00 73 1007.5
20260509110805 46 82 1.7 2.6 0.00 0.00 0.00 74 1007.5
20260509105306 48 70 1.7 2.6 0.00 0.00 0.00 73 1007.5
20260509104304 48 206 0.9 1.7 0.00 0.00 0.00 72 1007.5
20260509100805 48 211 1.7 2.6 0.00 0.00 0.00 74 1007.5
20260509100305 47 357 1.7 2.6 0.00 0.00 0.00 74 1007.5
20260509093804 50 184 0.9 1.7 0.00 0.00 0.00 69 1007.5
20260509093305 50 184 0.0 1.7 0.00 0.00 0.00 69 1007.5
20260509091804 51 184 1.7 2.6 0.00 0.00 0.00 67 1007.5
20260509091305 51 223 1.7 2.6 0.00 0.00 0.00 67 1007.5
20260509090304 52 243 0.9 1.7 0.00 0.00 0.00 66 1007.5
20260509082306 53 226 0.9 2.6 0.00 0.00 0.00 63 1007.5
20260509081304 53 265 1.7 2.6 0.00 0.00 0.00 62 1007.5
20260509074805 56 240 2.6 2.6 0.00 0.00 0.00 56 1007.5
20260509074305 56 213 2.6 5.2 0.00 0.00 0.00 56 1007.5
20260509073805 57 237 1.7 5.2 0.00 0.00 0.00 55 1007.5
20260509073304 57 212 4.3 7.8 0.00 0.00 0.00 55 1007.5
20260509072805 57 218 3.5 5.2 0.00 0.00 0.00 55 1007.5
20260509070805 57 184 5.2 12.2 0.00 0.00 0.00 54 1007.5
20260509070304 57 183 6.1 10.4 0.00 0.00 0.00 54 1007.5
20260509065306 57 175 6.1 8.7 0.00 0.00 0.00 55 1007.5
20260509064804 57 184 6.1 10.4 0.00 0.00 0.00 55 1007.5
20260509063304 57 198 5.2 8.7 0.00 0.00 0.00 54 1007.5
20260509061804 57 185 4.3 7.0 0.00 0.00 0.00 54 1007.5
20260509061304 56 175 2.6 5.2 0.00 0.00 0.00 54 1007.5
20260509060305 56 178 2.6 6.1 0.00 0.00 0.00 54 1007.5
20260509055804 56 164 1.7 4.3 0.00 0.00 0.00 54 1007.5
20260509055306 57 177 2.6 5.2 0.00 0.01 0.00 54 1007.5
20260509054804 57 163 1.7 5.2 0.00 0.01 0.00 53 1007.5
20260509054304 57 174 2.6 6.1 0.00 0.01 0.00 53 1007.5
20260509053804 57 186 2.6 6.1 0.00 0.01 0.00 53 1007.5
20260509052805 57 179 3.5 6.1 0.00 0.01 0.00 53 1007.5
20260509052307 57 177 4.3 6.1 0.00 0.01 0.00 52 1007.5
20260509051305 57 170 2.6 7.0 0.00 0.01 0.00 52 1007.5
20260509050804 57 159 2.6 5.2 0.00 0.01 0.00 51 1007.5
20260509045306 57 170 2.6 6.1 0.00 0.01 0.00 52 1007.5
20260509044805 57 164 4.3 5.2 0.00 0.01 0.00 53 1007.5
20260509043304 57 135 2.6 4.3 0.00 0.01 0.00 53 1007.5
20260509042804 57 133 0.9 2.6 0.00 0.01 0.00 53 1007.5
20260509042307 57 143 0.9 2.6 0.00 0.01 0.00 53 1007.5
20260509041804 57 173 1.7 2.6 0.00 0.01 0.00 52 1007.5
20260509041305 57 160 1.7 5.2 0.00 0.01 0.00 51 1007.5
20260509035804 58 171 1.7 4.3 0.00 0.01 0.00 51 1007.5
20260509033304 58 173 2.6 6.1 0.00 0.01 0.00 50 1007.5
20260509031804 59 145 2.6 5.2 0.00 0.01 0.00 48 1007.5
20260509030804 58 131 3.5 5.2 0.00 0.01 0.00 49 1007.5
20260509025306 60 108 0.9 2.6 0.00 0.01 0.00 46 1007.5
20260509022306 62 81 1.7 2.6 0.00 0.01 0.00 42 1007.5
20260509021804 62 86 0.9 4.3 0.00 0.01 0.00 42 1007.5
20260509020304 64 81 2.6 5.2 0.00 0.01 0.00 41 1007.5
20260509015804 64 98 4.3 6.1 0.00 0.01 0.00 40 1007.5